Vorticity
nan nan nan nan nan nan nan nan nan nan nan nan nan nan nan nan nan nan nan nan nan nan nan nan nan nan nan nan nan nan nan nan nan nan nan nan nan nan nan nan nan nan nan
nan 9 9 7 8 8 7 6 7 8 6 8 9 9 9 9 8 8 7 6 8 10 5 7 8 8 7 6 10 11 8 9 10 10 7 8 10 9 8 7 6 7 nan
nan 8 9 9 9 9 9 8 7 7 7 8 6 9 8 8 8 8 8 8 7 9 10 7 7 8 7 7 6 8 9 9 9 9 7 9 10 10 9 9 9 8 nan
nan 8 8 9 9 8 9 10 9 8 9 7 8 8 8 8 9 8 8 8 7 7 9 10 8 6 8 7 7 6 8 9 8 8 9 9 10 11 10 7 8 11 nan
nan 9 9 8 9 10 9 9 11 9 9 10 8 8 9 7 9 11 9 9 9 8 7 9 10 10 7 5 6 9 8 6 8 9 7 9 9 11 11 8 10 10 nan
nan 11 10 11 10 9 10 9 9 10 10 9 9 9 6 9 13 10 7 8 10 9 8 7 11 12 12 9 6 6 4 7 5 7 9 9 9 8 10 11 9 10 nan
nan 13 13 12 11 11 9 9 10 10 10 10 10 9 9 9 12 12 6 3 8 10 9 8 8 11 11 10 13 7 5 7 7 5 4 7 12 11 9 10 8 9 nan
nan 12 12 13 12 11 10 9 9 11 10 10 10 9 8 10 13 13 11 6 6 8 9 8 8 9 10 11 9 9 9 5 6 8 10 7 8 9 11 12 10 8 nan
nan 9 11 10 12 11 11 9 9 9 10 10 10 11 8 10 12 11 9 9 9 10 10 10 9 10 13 13 7 9 8 9 11 6 8 13 10 9 8 8 10 8 nan
nan 8 10 11 10 11 12 11 9 10 9 10 11 11 9 10 10 14 6 6 11 11 11 14 13 9 14 15 8 6 8 13 9 8 7 9 12 13 9 5 8 7 nan
nan 11 10 12 11 10 11 12 11 10 10 10 10 11 13 12 11 15 10 3 7 8 10 13 16 16 13 13 9 4 12 14 13 8 8 6 6 8 7 11 12 10 nan
nan 17 12 10 11 12 12 11 12 11 10 11 10 10 13 14 16 14 15 8 2 7 9 9 22 21 12 9 11 7 13 8 9 12 11 12 8 7 10 11 9 7 nan
nan 17 15 12 11 11 12 10 10 11 11 11 11 11 10 12 18 18 15 14 4 5 8 6 7 23 27 18 12 10 2 3 10 11 7 9 11 11 10 11 9 8 nan
nan 12 13 12 13 10 10 13 11 10 11 10 11 10 10 13 13 16 15 18 18 10 10 10 4 7 11 9 13 19 11 9 10 8 9 9 10 12 10 9 11 13 nan
nan 12 10 11 12 11 9 10 21 16 19 22 18 14 16 16 7 9 17 16 16 15 15 11 11 7 6 8 11 14 12 11 9 8 12 11 10 8 8 9 11 11 nan
nan 10 10 11 10 12 11 -4 2 24 19 15 18 21 19 9 9 11 13 10 18 22 13 13 12 14 13 10 10 11 14 10 8 11 12 11 9 7 7 11 13 10 nan
nan 13 14 15 16 14 13 15 -1 -3 8 12 10 8 12 7 8 15 15 14 24 19 10 14 13 13 12 11 11 13 12 12 11 9 11 11 9 12 13 12 10 8 nan
nan 12 18 16 11 13 15 14 20 15 8 3 2 5 5 10 14 21 20 16 10 10 13 12 15 16 17 16 13 13 13 19 22 20 15 11 10 12 14 12 11 10 nan
nan 10 9 9 12 13 11 12 12 11 12 12 8 7 7 6 9 14 14 12 13 14 13 12 12 13 14 15 14 15 16 17 16 14 18 20 17 13 10 8 12 13 nan
nan 14 15 9 9 9 10 11 11 10 10 9 10 9 8 6 10 10 13 13 13 11 10 9 12 12 12 11 12 11 12 13 15 14 12 9 12 12 11 11 11 9 nan
nan 11 12 12 11 12 10 10 10 10 8 10 12 10 8 12 13 8 6 8 8 9 10 11 12 13 13 11 12 12 10 11 12 13 14 13 11 9 11 10 10 12 nan
nan 12 10 9 8 9 15 16 12 11 12 14 14 13 10 8 11 15 11 8 9 10 9 11 14 16 15 12 12 12 13 13 11 12 11 11 11 13 13 11 11 11 nan
nan 15 14 14 14 8 10 12 14 13 11 11 11 12 14 13 11 11 11 13 15 14 13 13 15 12 11 12 12 12 11 11 12 12 14 12 9 12 12 13 13 12 nan
nan 13 11 12 14 15 14 13 11 10 10 11 12 12 12 13 13 13 11 12 13 12 16 14 12 12 10 8 8 9 13 15 10 11 11 12 14 12 11 11 11 11 nan
nan 11 9 10 11 12 11 12 12 12 12 11 11 10 12 14 12 13 19 18 14 12 16 14 12 13 10 9 13 13 18 18 13 12 11 13 12 11 8 9 11 11 nan
nan nan nan nan nan nan nan nan nan nan nan nan nan nan nan nan nan nan nan nan nan nan nan nan nan nan nan nan nan nan nan nan nan nan nan nan nan nan nan nan nan nan nan
CAPE
3514 3569 3495 3565 3267 2972 2684 2913 3488 2859 4182 3152 3883 3436 3395 3351 3352 3774 3062 3066 3499 2891 2607 2482 2120 1394 1103 1325 932 1054 994 857 582 474 1365 1392 1038 371 179 350 347 450 30
3781 3784 3594 3600 3834 3562 3055 2945 3210 3788 3239 4178 3766 3488 3312 3224 3452 3317 3301 2368 3213 2974 2435 2474 2376 1537 1686 1794 2029 1102 961 1237 1025 1283 1384 1288 1361 998 1052 1196 487 138 571
3590 3887 3882 3788 3779 3832 3694 3145 3264 3188 3812 3138 3932 3867 3240 3304 3304 3461 3227 2952 2166 3182 2945 2323 2112 1829 1642 913 1332 1368 1246 1538 1887 914 1123 1492 1466 1261 973 982 1394 812 685
3219 3624 3759 4005 3917 3908 3856 3924 3372 3617 3243 3698 3540 3501 3703 3405 3360 3275 3392 3481 3115 2663 3268 2888 2403 1922 1523 1744 1196 1028 1259 1336 1008 1306 916 737 1381 1043 886 673 897 895 637
2508 3239 3355 3640 3998 3909 3912 3998 4079 3725 3803 3531 3664 3858 3619 3650 3483 3337 3259 3394 3437 3059 2951 3138 2814 2290 1632 1527 1589 1637 915 1228 1277 655 711 887 847 1247 515 604 544 438 578
2967 2946 3233 3523 3648 3995 3870 3862 4007 4165 4014 4123 3917 3615 3820 3683 3325 2832 3010 3306 3416 3409 3188 3072 2977 2354 1760 1240 1333 1247 1413 863 644 528 608 544 683 984 1129 583 357 534 173
3134 3480 3478 3672 3868 4002 4030 4024 3938 4126 4152 4174 4180 4054 3743 3819 3160 2017 1843 3230 3293 3404 3402 3253 3099 2897 2173 1681 682 901 552 740 689 740 592 1008 1707 1495 1410 1272 1079 711 345
3994 3448 3937 4110 3949 4121 4145 4106 4164 4088 4218 4173 4213 4185 4024 3828 3297 1451 1019 2694 3132 3226 3338 3378 3247 3037 2804 2261 1668 884 862 445 177 592 1016 834 1384 1814 1247 1489 1227 867 605
3299 4110 3523 4176 4076 4159 4243 4182 4177 4253 4214 4324 4266 4266 4247 4115 3043 1562 248 2252 2800 2971 3236 3267 3258 3189 2997 1579 2103 1534 943 765 421 341 577 1258 1058 893 1289 793 692 300 220
3339 3312 4151 3549 4190 4209 4264 4341 4351 4346 4349 4270 4268 4285 4134 4246 3828 1191 334 2821 2686 2689 2848 3075 2374 3032 2949 900 1792 2086 1697 1057 857 445 122 7 49 99 263 778 497 247 154
3557 3647 3790 4295 3871 4287 4360 4480 4443 4402 4387 4386 4360 4367 4380 4222 4201 1969 5 3089 3255 2820 2678 2680 2757 1725 1899 900 552 2066 2081 1845 1076 886 392 220 142 248 53 169 410 296 183
3443 4155 4298 4512 4056 3934 4489 4625 4561 4537 4471 4428 4440 4440 4449 4429 3779 3543 84 227 3176 3312 3004 2677 2554 2559 762 86 0 1408 1353 1768 1678 989 612 316 153 153 174 90 201 255 127
4908 5037 4547 4664 4561 4241 4597 4567 4609 4649 4534 4500 4383 4402 4330 4257 4517 3536 1487 0 6 1343 3350 3069 1119 1260 94 7 2 463 158 1599 1744 956 789 349 188 137 109 204 62 107 94
4984 5401 4989 4826 4698 4562 4377 4442 4439 4424 4593 4541 4469 4319 4090 4360 4289 3971 1605 17 0 72 1303 1983 1862 1194 492 72 503 0 927 1707 1561 977 687 464 189 161 111 127 101 96 132
5129 4949 5009 4648 4534 4727 4347 3887 4329 4391 3799 4426 4269 3835 3930 4014 3026 1288 2089 2917 2034 1399 1802 2585 2702 2435 2353 1543 724 175 808 1261 1083 916 689 216 175 78 76 38 17 66 43
4799 4522 4300 3946 4437 4296 4540 3964 0 60 2 0 0 900 1106 32 0 17 984 1624 1564 593 993 2421 2858 2738 1857 1064 440 493 640 881 884 769 328 153 75 24 44 31 9 5 0
5057 4842 4018 3588 4018 4326 4442 4380 3680 0 1 0 0 0 0 0 1 2 3 3 35 3 2107 1547 1870 1309 667 590 365 493 502 623 618 434 199 57 47 25 51 4 0 2 0
2853 1091 3589 3833 3229 3432 3926 3869 3937 2795 2244 1386 0 0 0 0 0 1 0 1 44 1 858 777 781 823 560 226 201 182 310 508 421 243 51 0 14 35 1 0 0 0 0
2558 2207 2249 1646 1252 1094 1417 1260 1161 999 854 651 297 0 0 0 2 0 0 3 2 0 0 0 0 0 0 0 0 1 0 0 1 5 11 9 23 1 0 1 0 1 0
1087 609 1075 1312 1112 840 755 426 364 367 298 195 91 0 0 10 0 4 6 4 3 1 0 0 1 0 0 1 0 0 0 2 13 3 77 83 9 0 0 0 0 0 0
633 794 672 881 731 788 585 196 169 142 316 372 5 0 0 0 0 1 2 5 8 4 17 22 7 6 3 2 0 0 44 25 5 39 45 74 44 14 17 14 11 0 0
845 902 685 208 483 488 652 611 514 207 98 8 6 0 0 1 4 7 1 2 12 12 11 34 29 25 18 10 26 32 31 14 32 17 20 38 54 26 8 8 6 1 0
211 412 510 392 256 27 25 5 0 0 1 2 3 4 5 18 14 4 13 10 20 45 65 29 8 3 0 5 0 0 0 7 31 30 19 17 10 11 0 0 0 0 0
17 30 86 26 3 48 57 14 0 0 6 12 7 5 14 17 17 1 5 46 54 12 20 68 6 0 9 1 1 0 0 5 2 14 5 4 0 0 0 0 0 0 0
0 0 0 0 0 0 0 0 0 0 0 0 1 0 1 14 16 7 39 47 25 37 96 46 46 27 29 14 8 20 3 5 27 10 3 0 0 0 0 0 0 0 0
0 0 0 0 0 0 1 2 3 1 1 1 0 1 1 2 2 5 2 1 0 24 57 134 126 77 118 50 0 0 0 0 0 0 0 0 0 0 0 0 0 0 0